Flag for France Weather past 2 weeks in Gustavia, Saint Barthélemy, France

Now
86 °F

Scattered clouds.


Feels Like: 93 °F
Forecast: 82 / 85 °F
Wind: 10 mph from East

Location: Juliana Airport - Saint Maarten

Current Time: Oct 22, 2014 at 12:36:09 PM

Latest Report: Oct 22, 2014 at 12:00 PM


Visibility: N/A

Pressure: 29.95 "Hg

Humidity: 66%

Dew point: 73 °F

Location of GustaviaLocation

Historic Weather in Gustavia — Graph

°F

Gustavia temperature yesterday

Maximum temperature yesterday: 88 °F (at 11:00 AM)
Minimum temperature yesterday: 81 °F (at 3:00 AM)
Average temperature yesterday: 84 °F

Past Weeks' High & Low Weather Summary

 TemperatureHumidityPressure
High122 °F (Oct 12, 9:00 AM)94% (Oct 13, 4:00 PM)30.01 "Hg (Oct 13, 4:00 PM)
Low50 °F (Oct 12, 8:00 AM)55% (Oct 17, 5:00 PM)29.33 "Hg (Oct 13, 7:00 PM)
Average83 °F74%29.91 "Hg
* Reported Oct 7 11:00 AM — Oct 22 11:00 AM, Gustavia, Weather by CustomWeather, © 2014

Note: Actual official high and low records may vary slightly from our data, if they occured in-between our weather recording intervals... More about our weather records

Advertising

Gustavia weather history for previous 24 hours

 ConditionsComfort  
Time TempWeatherWind HumidityBarometerVisibility
11:00 AM
Oct 22
86 °FScattered clouds.9 mph66%29.98 "HgN/A
10:00 AM86 °FScattered clouds.10 mph66%30.01 "HgN/A
9:00 AM86 °FScattered clouds.8 mph66%30.01 "HgN/A
8:00 AM84 °FScattered clouds.9 mph70%29.98 "HgN/A
7:00 AM82 °FPassing clouds.5 mph74%29.98 "HgN/A
6:00 AM81 °FPassing clouds.6 mph74%29.95 "HgN/A
5:00 AM81 °FPassing clouds.5 mph79%29.92 "HgN/A
4:00 AM81 °FPassing clouds.6 mph79%29.92 "HgN/A
3:00 AM82 °FPassing clouds.5 mph74%29.92 "HgN/A
2:00 AM82 °FPassing clouds.7 mph74%29.95 "HgN/A
1:00 AM82 °FPassing clouds.3 mph74%29.95 "HgN/A
12:00 AM82 °FPassing clouds.7 mph74%29.95 "HgN/A
11:00 PM
Oct 21
82 °FPassing clouds.7 mph74%29.98 "HgN/A
10:00 PM82 °FPassing clouds.8 mph74%29.98 "HgN/A
9:00 PM82 °FPassing clouds.9 mph74%29.95 "HgN/A
8:00 PM82 °FPassing clouds.7 mph74%29.95 "HgN/A
7:00 PM82 °FPassing clouds.7 mph74%29.92 "HgN/A
6:00 PM82 °FPassing clouds.9 mph70%29.92 "HgN/A
5:00 PM84 °FPassing clouds.8 mph66%29.89 "HgN/A
4:00 PM86 °FPassing clouds.9 mph62%29.89 "HgN/A
3:00 PM86 °FPartly sunny.8 mph70%29.89 "HgN/A
2:00 PM88 °FPartly sunny.6 mph62%29.92 "HgN/A
1:00 PM88 °FPassing clouds.8 mph66%29.92 "HgN/A
12:00 PM88 °FPassing clouds.8 mph59%29.95 "HgN/A
Weather by CustomWeather, © 2014

See weather overviewHow to use our weather pages